Regional Weather Roundup
Issued by NWS

Home | Current Version | Previous Version | Graphics & Text | Print | Product List | Glossary Off
Versions: 1 2 3 4 5 6 7 8 9 10 11 12 13 14 15 16 17 18 19 20 21 22 23 24 25 26 27 28 29 30 31 32 33 34 35 36 37 38 39 40 41 42 43 44 45 46 47 48 49 50

000
ASUS43 KTOP 062308
RWRKS

WEATHER ROUNDUP FOR KANSAS
NATIONAL WEATHER SERVICE GOODLAND KS
600 PM CDT MON JUL 06 2015

NOTE:  "FAIR" INDICATES FEW OR NO CLOUDS BELOW 12,000 FEET WITH NO
SIGNIFICANT WEATHER AND/OR OBSTRUCTIONS TO VISIBILITY.

KSZ001>006-013>018-027>032-041>047-070000-
NORTHWEST KANSAS

CITY           SKY/WX    TMP DP  RH WIND       PRES   REMARKS
GOODLAND       CLOUDY    72  55  55 N21G26    30.12F
HAYS           CLOUDY    75  61  60 N28       29.96F
HILL CITY      PTSUNNY   80  59  48 N22G31    30.01F HAZE
RUSSELL        CLOUDY    74  65  73 N21       29.93F
$$

KSZ061>065-074>080-084>089-070000-
SOUTHWEST KANSAS

CITY           SKY/WX    TMP DP  RH WIND       PRES   REMARKS
DODGE CITY     CLOUDY    71  61  70 N25G37    29.97S
ELKHART          N/A     71  56  59 N13         N/A
GARDEN CITY    CLOUDY    72  61  68 N22G30    30.01F
GREAT BEND     CLOUDY    73  64  73 N25G38    29.94S
LIBERAL        CLOUDY    73  61  64 N21       30.04S
PRATT          CLOUDY    73  64  73 N26G36    29.91R
$$

KSZ066>073-081>083-090>101-070000-
SOUTHEAST KANSAS

CITY           SKY/WX    TMP DP  RH WIND       PRES   REMARKS
CHANUTE        CLOUDY    84  74  71 S9        29.87R
COFFEYVILLE    PTSUNNY   86  74  67 S12G21    29.85S
HUTCHINSON     CLOUDY    75  71  87 NE10      29.88R
MEDICINE LODGE   N/A     82  71  69 N31G40    29.81R
NEWTON         CLOUDY    72  68  88 N13       29.90R
PARSONS        CLOUDY    85  75  72 S8G16     29.87R
WICHITA INTL   TSTM      75  72  90 N5        29.85F FOG
WICHITA JABRA  TSTM      72  72 100 VRB3      29.86R FOG
WICHITA MCCONL TSTM      72  70  94 E9        29.87R FOG
WINFIELD       CLOUDY    89  71  55 S9G21     29.84R THUNDER HX  95
$$

KSZ007>012-019>026-033>040-048>060-102>105-070000-
NORTHEAST KANSAS

CITY           SKY/WX    TMP DP  RH WIND       PRES   REMARKS
CONCORDIA      CLOUDY    72  66  81 N21G28    29.93F
EMPORIA        LGT RAIN  70  69  97 SW3       29.88F
LAWRENCE       TSTM      72  70  93 N13G21    29.87R FOG
MANHATTAN      LGT RAIN  74  72  93 N10       29.86F
MARYSVILLE     CLOUDY    72  70  94 N12       29.91R
OLATHE IND     CLOUDY    72  71  97 SW12      29.88R THUNDER FOG
OLATHE EXE     TSTM      70  69  97 SW8G20    29.87R FOG
SALINA         CLOUDY    75  68  78 N21       29.90S
TOPEKA BILLARD RAIN      72  70  93 NE7       29.89R FOG
TOPEKA FORBES  RAIN      73  70  90 E8        29.88R FOG
$$



USA.gov is the U.S. government's official web portal to all federal, state and local government web resources and services.